| time (UTC) | temp C | wind direction | speed KPH | gust KPH | rain 1hr cm | rain 24hr cm | rain mn cm | humidity % | barometer mb |
| 20260506032108 | 13 | 216 | 16.1 | 29.0 | 0.00 | 0.00 | 0.00 | 33 | 1013.4 |
| 20260506031138 | 13 | 230 | 12.9 | 33.8 | 0.00 | 0.00 | 0.00 | 34 | 1013.4 |
| 20260506030048 | 13 | 217 | 17.7 | 32.2 | 0.00 | 0.00 | 0.00 | 33 | 1013.4 |
| 20260506025038 | 13 | 218 | 17.7 | 35.4 | 0.00 | 0.00 | 0.00 | 33 | 1013.1 |
| 20260506024048 | 13 | 215 | 12.9 | 27.4 | 0.00 | 0.00 | 0.00 | 31 | 1013.0 |
| 20260506023018 | 13 | 222 | 14.5 | 33.8 | 0.00 | 0.00 | 0.00 | 31 | 1013.1 |
| 20260506022109 | 13 | 221 | 19.3 | 37.0 | 0.00 | 0.00 | 0.00 | 31 | 1013.0 |
| 20260506021119 | 13 | 221 | 19.3 | 32.2 | 0.00 | 0.00 | 0.00 | 31 | 1013.0 |
| 20260506020048 | 13 | 212 | 16.1 | 38.6 | 0.00 | 0.00 | 0.00 | 31 | 1012.9 |
| 20260506015039 | 13 | 217 | 17.7 | 35.4 | 0.00 | 0.00 | 0.00 | 32 | 1012.8 |
| 20260506014049 | 13 | 216 | 14.5 | 32.2 | 0.00 | 0.00 | 0.00 | 32 | 1012.6 |
| 20260506013019 | 13 | 221 | 19.3 | 41.8 | 0.00 | 0.00 | 0.00 | 32 | 1012.4 |
| 20260506012110 | 14 | 203 | 14.5 | 51.5 | 0.00 | 0.00 | 0.00 | 32 | 1012.3 |
| 20260506011100 | 14 | 230 | 17.7 | 35.4 | 0.00 | 0.00 | 0.00 | 33 | 1012.3 |
| 20260506010049 | 14 | 211 | 16.1 | 40.2 | 0.00 | 0.00 | 0.00 | 33 | 1012.2 |
| 20260506005040 | 14 | 218 | 17.7 | 29.0 | 0.00 | 0.00 | 0.00 | 33 | 1012.3 |
| 20260506004029 | 14 | 218 | 17.7 | 56.3 | 0.00 | 0.00 | 0.00 | 33 | 1012.4 |
| 20260506003019 | 14 | 216 | 16.1 | 38.6 | 0.00 | 0.00 | 0.00 | 34 | 1012.3 |
| 20260506002111 | 14 | 228 | 19.3 | 40.2 | 0.00 | 0.00 | 0.00 | 35 | 1012.3 |
| 20260506001101 | 14 | 215 | 19.3 | 41.8 | 0.00 | 0.00 | 0.00 | 36 | 1012.1 |
| 20260506000050 | 15 | 211 | 9.7 | 25.7 | 0.00 | 0.00 | 0.00 | 35 | 1011.9 |
| 20260505235041 | 15 | 221 | 20.9 | 41.8 | 0.00 | 0.00 | 0.00 | 35 | 1012.0 |
| 20260505234032 | 15 | 225 | 14.5 | 37.0 | 0.00 | 0.00 | 0.00 | 36 | 1012.2 |
| 20260505233021 | 15 | 220 | 19.3 | 43.5 | 0.00 | 0.00 | 0.00 | 38 | 1012.1 |
| 20260505232112 | 14 | 214 | 19.3 | 32.2 | 0.00 | 0.00 | 0.00 | 40 | 1012.1 |
| 20260505231102 | 14 | 226 | 14.5 | 29.0 | 0.00 | 0.00 | 0.00 | 45 | 1012.3 |
| 20260505230052 | 13 | 220 | 22.5 | 41.8 | 0.00 | 0.00 | 0.00 | 45 | 1012.3 |
| 20260505225042 | 13 | 216 | 20.9 | 41.8 | 0.00 | 0.00 | 0.00 | 46 | 1012.5 |
| 20260505224033 | 15 | 212 | 19.3 | 40.2 | 0.00 | 0.00 | 0.00 | 44 | 1012.5 |
| 20260505223023 | 15 | 218 | 17.7 | 40.2 | 0.00 | 0.00 | 0.00 | 45 | 1012.3 |
| 20260505222133 | 15 | 215 | 20.9 | 40.2 | 0.00 | 0.00 | 0.00 | 43 | 1012.2 |
| 20260505221103 | 15 | 224 | 19.3 | 43.5 | 0.00 | 0.00 | 0.00 | 43 | 1012.3 |
| 20260505220053 | 15 | 222 | 22.5 | 43.5 | 0.00 | 0.00 | 0.00 | 42 | 1012.4 |
| 20260505215044 | 15 | 220 | 17.7 | 33.8 | 0.00 | 0.00 | 0.00 | 42 | 1012.6 |
| 20260505214033 | 15 | 220 | 24.1 | 40.2 | 0.00 | 0.00 | 0.00 | 41 | 1012.5 |
| 20260505213023 | 15 | 220 | 22.5 | 43.5 | 0.00 | 0.00 | 0.00 | 43 | 1012.4 |
| 20260505212114 | 15 | 225 | 22.5 | 43.5 | 0.00 | 0.00 | 0.00 | 42 | 1013.0 |
| 20260505211104 | 15 | 234 | 22.5 | 41.8 | 0.00 | 0.00 | 0.00 | 43 | 1012.9 |
| 20260505210054 | 15 | 227 | 22.5 | 41.8 | 0.00 | 0.00 | 0.00 | 44 | 1013.1 |
| 20260505205044 | 15 | 230 | 27.4 | 46.7 | 0.00 | 0.00 | 0.00 | 43 | 1013.1 |
| 20260505204034 | 15 | 220 | 17.7 | 41.8 | 0.00 | 0.00 | 0.00 | 43 | 1013.3 |
| 20260505203024 | 15 | 209 | 22.5 | 57.9 | 0.00 | 0.00 | 0.00 | 43 | 1013.3 |
| 20260505202115 | 15 | 223 | 29.0 | 49.9 | 0.00 | 0.00 | 0.00 | 44 | 1013.4 |
| 20260505201105 | 14 | 221 | 19.3 | 41.8 | 0.00 | 0.00 | 0.00 | 45 | 1014.0 |
| 20260505200055 | 15 | 215 | 24.1 | 41.8 | 0.00 | 0.00 | 0.00 | 44 | 1013.7 |
| 20260505195045 | 15 | 222 | 22.5 | 43.5 | 0.00 | 0.00 | 0.00 | 43 | 1013.7 |
| 20260505194035 | 15 | 210 | 22.5 | 43.5 | 0.00 | 0.00 | 0.00 | 43 | 1013.9 |
| 20260505193025 | 15 | 224 | 22.5 | 41.8 | 0.00 | 0.00 | 0.00 | 45 | 1013.6 |
| 20260505192136 | 15 | 217 | 17.7 | 38.6 | 0.00 | 0.00 | 0.00 | 46 | 1013.6 |
| 20260505191106 | 15 | 221 | 17.7 | 45.1 | 0.00 | 0.00 | 0.00 | 45 | 1013.8 |
| 20260505190056 | 15 | 218 | 19.3 | 45.1 | 0.00 | 0.00 | 0.00 | 44 | 1013.9 |
| 20260505185106 | 15 | 220 | 17.7 | 45.1 | 0.00 | 0.00 | 0.00 | 43 | 1014.1 |
| 20260505184036 | 15 | 221 | 22.5 | 38.6 | 0.00 | 0.00 | 0.00 | 43 | 1014.0 |
| 20260505183046 | 15 | 226 | 29.0 | 40.2 | 0.00 | 0.00 | 0.00 | 42 | 1014.1 |
| 20260505182016 | 15 | 220 | 20.9 | 41.8 | 0.00 | 0.00 | 0.00 | 41 | 1013.8 |
| 20260505181106 | 15 | 222 | 24.1 | 41.8 | 0.00 | 0.00 | 0.00 | 41 | 1013.9 |
| 20260505180056 | 15 | 216 | 22.5 | 43.5 | 0.00 | 0.00 | 0.00 | 41 | 1013.7 |
| 20260505175107 | 14 | 216 | 16.1 | 37.0 | 0.00 | 0.00 | 0.00 | 41 | 1014.0 |
| 20260505174037 | 14 | 221 | 22.5 | 41.8 | 0.00 | 0.00 | 0.00 | 41 | 1014.1 |
| 20260505173027 | 13 | 208 | 24.1 | 33.8 | 0.00 | 0.00 | 0.00 | 42 | 1013.8 |
| 20260505172017 | 14 | 213 | 20.9 | 45.1 | 0.00 | 0.00 | 0.00 | 41 | 1013.8 |
| 20260505171128 | 15 | 194 | 29.0 | 32.2 | 0.00 | 0.00 | 0.00 | 39 | 1014.0 |
| 20260505170118 | 14 | 219 | 19.3 | 43.5 | 0.00 | 0.00 | 0.00 | 39 | 1013.8 |
| 20260505165048 | 14 | 219 | 20.9 | 37.0 | 0.00 | 0.00 | 0.00 | 40 | 1013.8 |
| 20260505164038 | 14 | 212 | 17.7 | 33.8 | 0.00 | 0.00 | 0.00 | 40 | 1014.1 |
| 20260505163027 | 14 | 220 | 17.7 | 38.6 | 0.00 | 0.00 | 0.00 | 40 | 1014.1 |
| 20260505162017 | 13 | 225 | 17.7 | 30.6 | 0.00 | 0.00 | 0.00 | 42 | 1014.0 |
| 20260505161108 | 14 | 218 | 22.5 | 40.2 | 0.00 | 0.00 | 0.00 | 40 | 1014.0 |
| 20260505153109 | 13 | 212 | 24.1 | 37.0 | 0.00 | 0.00 | 0.00 | 41 | 1013.8 |
| 20260505152019 | 13 | 221 | 19.3 | 45.1 | 0.00 | 0.00 | 0.00 | 40 | 1013.7 |
| 20260505151129 | 12 | 225 | 24.1 | 40.2 | 0.00 | 0.00 | 0.00 | 44 | 1013.5 |
| 20260505124041 | 13 | 214 | 20.9 | 37.0 | 0.00 | 0.00 | 0.00 | 36 | 1012.6 |
| 20260505123032 | 13 | 217 | 17.7 | 35.4 | 0.00 | 0.00 | 0.00 | 37 | 1012.4 |
| 20260505122022 | 13 | 235 | 14.5 | 37.0 | 0.00 | 0.00 | 0.00 | 37 | 1012.1 |
| 20260505121113 | 13 | 208 | 16.1 | 30.6 | 0.00 | 0.00 | 0.00 | 36 | 1012.2 |
| 20260505115053 | 13 | 224 | 17.7 | 32.2 | 0.00 | 0.00 | 0.00 | 36 | 1012.1 |
| 20260505114103 | 13 | 212 | 16.1 | 27.4 | 0.00 | 0.00 | 0.00 | 36 | 1012.0 |
| 20260505113032 | 13 | 212 | 17.7 | 32.2 | 0.00 | 0.00 | 0.00 | 37 | 1012.0 |
| 20260505112022 | 13 | 227 | 17.7 | 38.6 | 0.00 | 0.00 | 0.00 | 37 | 1011.9 |
| 20260505111113 | 13 | 232 | 16.1 | 45.1 | 0.00 | 0.00 | 0.00 | 37 | 1012.1 |
| 20260505102024 | 13 | 223 | 20.9 | 45.1 | 0.00 | 0.00 | 0.00 | 36 | 1011.8 |
| 20260505101115 | 13 | 212 | 24.1 | 45.1 | 0.00 | 0.00 | 0.00 | 36 | 1011.5 |
| 20260505100105 | 13 | 213 | 27.4 | 45.1 | 0.00 | 0.00 | 0.00 | 36 | 1011.9 |
| 20260505095055 | 13 | 215 | 25.7 | 51.5 | 0.00 | 0.00 | 0.00 | 36 | 1011.8 |
| 20260505094105 | 13 | 223 | 24.1 | 48.3 | 0.00 | 0.00 | 0.00 | 35 | 1011.8 |
| 20260505093035 | 13 | 221 | 24.1 | 51.5 | 0.00 | 0.00 | 0.00 | 36 | 1011.8 |
| 20260505092025 | 13 | 219 | 24.1 | 54.7 | 0.00 | 0.00 | 0.00 | 38 | 1011.7 |
| 20260505091116 | 13 | 225 | 22.5 | 37.0 | 0.00 | 0.00 | 0.00 | 38 | 1012.0 |
| 20260505090106 | 13 | 220 | 22.5 | 48.3 | 0.00 | 0.00 | 0.00 | 37 | 1012.1 |
| 20260505085117 | 13 | 208 | 17.7 | 32.2 | 0.00 | 0.00 | 0.00 | 37 | 1012.1 |
| 20260505084046 | 14 | 220 | 17.7 | 33.8 | 0.00 | 0.00 | 0.00 | 36 | 1012.5 |
| 20260505083036 | 14 | 225 | 14.5 | 33.8 | 0.00 | 0.00 | 0.00 | 35 | 1012.9 |
| 20260505082026 | 15 | 217 | 19.3 | 43.5 | 0.00 | 0.00 | 0.00 | 36 | 1013.1 |
| 20260505081016 | 14 | 213 | 14.5 | 29.0 | 0.00 | 0.00 | 0.00 | 37 | 1013.6 |
| 20260505080107 | 14 | 216 | 14.5 | 30.6 | 0.00 | 0.00 | 0.00 | 37 | 1013.9 |
| 20260505075057 | 14 | 230 | 9.7 | 33.8 | 0.00 | 0.00 | 0.00 | 36 | 1013.9 |
| 20260505074107 | 14 | 215 | 14.5 | 25.7 | 0.00 | 0.00 | 0.00 | 36 | 1014.0 |
| 20260505073037 | 14 | 221 | 17.7 | 29.0 | 0.00 | 0.00 | 0.00 | 35 | 1014.2 |
| 20260505072027 | 15 | 233 | 22.5 | 33.8 | 0.00 | 0.00 | 0.00 | 35 | 1014.1 |
| 20260505071017 | 15 | 223 | 24.1 | 40.2 | 0.00 | 0.00 | 0.00 | 34 | 1013.7 |
| 20260505070108 | 15 | 217 | 25.7 | 48.3 | 0.00 | 0.00 | 0.00 | 34 | 1013.4 |
| 20260505065058 | 15 | 219 | 24.1 | 43.5 | 0.00 | 0.00 | 0.00 | 31 | 1013.0 |
| 20260505064048 | 15 | 221 | 24.1 | 45.1 | 0.00 | 0.00 | 0.00 | 30 | 1012.9 |
| 20260505063058 | 15 | 226 | 20.9 | 40.2 | 0.00 | 0.00 | 0.00 | 29 | 1012.9 |
| 20260505062028 | 15 | 234 | 16.1 | 35.4 | 0.00 | 0.00 | 0.00 | 30 | 1013.4 |
| 20260505061017 | 15 | 223 | 17.7 | 33.8 | 0.00 | 0.00 | 0.00 | 31 | 1013.2 |
| 20260505060109 | 15 | 229 | 19.3 | 33.8 | 0.00 | 0.00 | 0.00 | 31 | 1013.4 |
| 20260505055059 | 15 | 225 | 16.1 | 33.8 | 0.00 | 0.00 | 0.00 | 31 | 1013.7 |
| 20260505054049 | 15 | 232 | 11.3 | 22.5 | 0.00 | 0.00 | 0.00 | 32 | 1014.1 |
| 20260505053059 | 15 | 230 | 14.5 | 25.7 | 0.00 | 0.00 | 0.00 | 31 | 1014.4 |
| 20260505052029 | 15 | 232 | 11.3 | 22.5 | 0.00 | 0.00 | 0.00 | 29 | 1014.6 |
| 20260505051018 | 16 | 239 | 14.5 | 24.1 | 0.00 | 0.00 | 0.00 | 27 | 1015.0 |
| 20260505050109 | 16 | 218 | 19.3 | 27.4 | 0.00 | 0.00 | 0.00 | 25 | 1015.1 |
| 20260505041039 | 16 | 205 | 14.5 | 22.5 | 0.00 | 0.00 | 0.00 | 24 | 1015.3 |
| 20260505040110 | 16 | 218 | 16.1 | 22.5 | 0.00 | 0.00 | 0.00 | 23 | 1015.2 |
| 20260505035101 | 16 | 224 | 14.5 | 24.1 | 0.00 | 0.00 | 0.00 | 24 | 1015.2 |
| 20260505034050 | 16 | 219 | 12.9 | 20.9 | 0.00 | 0.00 | 0.00 | 24 | 1015.1 |
| 20260505033040 | 16 | 220 | 12.9 | 22.5 | 0.00 | 0.00 | 0.00 | 24 | 1015.1 |